www.pogodaiklimat.ru

Погода и климат >> Архив погоды >> Иран >> Bandar Lengeh


ПОГОДА в Bandar Lengeh

  • Прогноз погоды в Bandar Lengeh
  • Монитор погоды в Bandar Lengeh
  • Климат города

АРХИВ ПОГОДЫ в Bandar Lengeh

Время (UTC), дата Ветер
(напр.,м/с)
 
Видим.   Явления Облачность Т
(С)
Тd
(С)
f
(%)
Тe
(С)
Тes
(С)
Комфортность P
(гПа)
Po
(гПа)
Тmin
(С)
Tmax
(С)
R
(мм)
R24
(мм)
S
(см)
03 9.07 штиль 0 2500 м дымка ясно +31.5 +28.3 83 +52 +55 опасность
перегрева
996.8 994.6 +30.6
06 9.07 Ю 2 3000 м мгла ясно +34.8 +27.5 66 +54 +70 опасность
перегрева
997.5 995.3
09 9.07 ЮВ 3 3000 м мгла ясно +37.2 +25.5 51 +51 +69 опасность
перегрева
996.4 994.3
12 9.07 Ю 3 3000 м мгла ясно +37.9 +26.3 52 +54 +62 опасность
перегрева
993.9 991.8
15 9.07 З 2 3000 м мгла 5/0
[Ac trans]
+37.6 +20.5 37 +44 +44 опасность
перегрева
993.8 991.7 +39.5
18 9.07 З 2 3000 м мгла 3/0
[Ac trans]
+34.4 +23.2 52 +45 +45 опасность
перегрева
994.3 992.2
21 9.07 Ю 2 3000 м мгла ясно +34.1 +26.9 66 +52 +52 опасность
перегрева
993.8 991.7
00 10.07 штиль 0 2500 м дымка ясно +31.8 +29.8 89 +57 +57 опасность
перегрева
993.8 991.7
03 10.07 штиль 0 2500 м дымка 8/0
[Ac trans]
+32.0 +30.6 92 +60 +62 опасность
перегрева
994.9 992.8 +31.0
06 10.07 ЮВ 2 3000 м мгла 4/0
[Ac As]
+39.3 +19.6 32 +44 +56 опасность
перегрева
995.9 993.8
09 10.07 Ю 5 2500 м мгла 1/0
[Ac trans]
+40.7 +19.2 29 +45 +56 опасность
перегрева
995.1 993.0
12 10.07 Ю 4 2500 м мгла 4/0
[Ac trans]
+38.7 +23.5 42 +49 +54 опасность
перегрева
993.9 991.8
15 10.07 ЮЗ 2 2500 м мгла 4/0
[Ac trans]
+37.8 +23.1 43 +47 +47 опасность
перегрева
994.0 991.9 +42.2
18 10.07 штиль 0 2500 м мгла ясно +35.4 +20.2 41 +41 +41 опасность
перегрева
995.0 993.0
21 10.07 Ю 2 3500 м мгла ясно +35.0 +15.9 32 +37 +37 очень
душно
994.5 992.4
00 11.07 З 3 4000 м мгла ясно +33.0 +27.0 71 +51 +51 опасность
перегрева
994.0 991.9
03 11.07 В 5 2500 м мгла 1/0
[Ac trans]
+33.5 +29.4 79 +58 +59 опасность
перегрева
995.5 993.4 +31.5
06 11.07 В 5 3500 м мгла 5/0
[Cs]
+37.0 +27.9 60 +57 +65 опасность
перегрева
996.5 994.4
09 11.07 Ю 4 3000 м мгла 5/0
[Cs]
+37.7 +30.2 66 +65 +78 опасность
перегрева
995.5 993.4
12 11.07 ЮЗ 5 3000 м мгла ясно +36.2 +30.6 73 +65 +70 опасность
перегрева
993.9 991.8
15 11.07 ЮЗ 5 4000 м мгла 1/0
[Ac trans]
+35.7 +28.0 65 +57 +57 опасность
перегрева
993.6 991.5 +39.1
18 11.07 штиль 0 4000 м мгла ясно +35.4 +17.5 35 +39 +39 очень
душно
994.1 992.0
21 11.07 штиль 0 4000 м мгла ясно +33.1 +20.2 47 +40 +40 очень
душно
992.9 990.8
00 12.07 В 5 4000 м мгла ясно +33.5 +21.4 49 +41 +41 опасность
перегрева
992.6 990.5
03 12.07 В 3 2000 м дымка 1/0
[Ac trans]
+33.1 +29.4 81 +58 +60 опасность
перегрева
994.1 992.0 +31.9
06 12.07 В 4 3500 м мгла ясно +35.3 +28.8 69 +58 +69 опасность
перегрева
994.6 992.5
09 12.07 ЮВ 4 3500 м мгла ясно +37.7 +27.6 57 +57 +72 опасность
перегрева
994.0 991.9
12 12.07 Ю 3 4000 м мгла ясно +37.0 +29.0 64 +60 +68 опасность
перегрева
992.3 990.2
15 12.07 З 4 4000 м мгла 1/0
[Ac trans]
+37.5 +25.2 50 +51 +51 опасность
перегрева
991.7 989.6 +38.5
18 12.07 З 3 4000 м мгла ясно +35.6 +26.3 59 +52 +52 опасность
перегрева
992.3 990.2
21 12.07 В 3 4000 м мгла ясно +32.7 +26.1 68 +48 +48 опасность
перегрева
992.0 989.9
00 13.07 ЮВ 5 1200 м дымка ясно +32.3 +31.9 98 +67 +67 опасность
перегрева
992.1 990.0
03 13.07 В 3 3000 м дымка ясно +32.3 +31.5 96 +65 +67 опасность
перегрева
992.9 990.8 +31.6
06 13.07 В 3 3500 м мгла 3/0
[Ac trans]
+36.8 +23.2 46 +47 +58 опасность
перегрева
994.0 991.9
09 13.07 ЮВ 4 4000 м мгла 1/0
[Ac trans]
+38.0 +28.7 59 +60 +73 опасность
перегрева
993.5 991.4
12 13.07 Ю 3 4000 м мгла ясно +36.9 +28.5 62 +58 +66 опасность
перегрева
992.2 990.1
15 13.07 З 3 5000 м мгла 4/0
[Ac trans]
+37.8 +19.1 34 +43 +43 опасность
перегрева
991.8 989.7 +39.2
18 13.07 СЗ 2 5000 м мгла 3/0
[Ac trans]
+36.2 +16.2 31 +39 +39 очень
душно
992.7 990.6
21 13.07 штиль 0 5000 м мгла ясно +32.5 +27.5 75 +52 +52 опасность
перегрева
992.6 990.5
00 14.07 В 5 3000 м дымка ясно +33.2 +30.2 84 +61 +61 опасность
перегрева
992.3 990.2
03 14.07 В 6 3000 м дымка ясно +32.9 +30.7 88 +62 +63 опасность
перегрева
993.6 991.5 +31.6
06 14.07 ЮВ 5 4000 м мгла ясно +35.2 +29.4 72 +60 +68 опасность
перегрева
995.4 993.3
09 14.07 Ю 4 4000 м мгла ясно +37.6 +29.8 65 +64 +78 опасность
перегрева
995.4 993.3
12 14.07 ЮЗ 4 5000 м мгла ясно +36.8 +28.1 61 +57 +64 опасность
перегрева
992.9 990.8
15 14.07 З 4 6000 м мгла ясно +37.2 +24.0 47 +49 +49 опасность
перегрева
992.4 990.3 +39.4
18 14.07 З 3 7000 м мгла ясно +33.8 +27.9 71 +54 +54 опасность
перегрева
993.6 991.5
21 14.07 штиль 0 7000 м мгла ясно +32.0 +27.7 78 +52 +52 опасность
перегрева
993.6 991.5
00 15.07 штиль 0 7000 м дымка ясно +31.4 +29.5 90 +56 +56 опасность
перегрева
992.8 990.7
03 15.07 ЮВ 3 3000 м дымка ясно +32.4 +30.6 90 +61 +63 опасность
перегрева
993.3 991.2 +31.0
06 15.07 ЮВ 3 4000 м мгла 3/3 900 м
[Sc]
+35.4 +28.3 67 +57 +66 опасность
перегрева
995.1 993.0
09 15.07 Ю 4 4000 м мгла ясно +36.4 +29.8 69 +62 +77 опасность
перегрева
995.1 993.0
12 15.07 ЮЗ 4 5000 м мгла ясно +36.6 +26.1 55 +52 +58 опасность
перегрева
993.1 991.0
15 15.07 З 5 6000 м мгла ясно +34.8 +27.8 67 +55 +55 опасность
перегрева
992.8 990.7 +37.6
18 15.07 З 3 7000 м мгла ясно +33.4 +27.0 69 +51 +51 опасность
перегрева
993.1 991.0
21 15.07 штиль 0 7000 м мгла ясно +32.0 +26.5 73 +49 +49 опасность
перегрева
993.6 991.5
00 16.07 штиль 0 5000 м дымка ясно +31.0 +29.1 90 +54 +54 опасность
перегрева
993.1 991.0

 

Местоположение метеостанции Bandar Lengeh (Иран): широта 26.58 долгота 54.83 высота над уровнем моря 14 м.

В архиве по умолчанию представлена погода в Bandar Lengeh за последнюю неделю. Архивные данные за месяц целиком и за предыдущие месяцы, начиная с января 2011 года, Вы можете получить, выбрав интересующий диапазон дат из раскрывающегося списка и нажав кнопку "Ввод!".


*Определитесь, кто Вы:
робот инопланетянин человек

Внимание! Время в таблицах - всемирное. Для получения местного времени необходимо прибавить поправку, которая в Bandar Lengeh равна 3.5 ч.

Смотрите также архив погоды в соседних городах и на ближайших метеорологических станциях:

Погода в Sirri Island (Иран) (80 км)
Погода в Abu Musa Island (Иран) (83 км)
Погода в Kish Island (Иран) (85 км)
Погода в Khasab (Оман) (146 км)
Погода в Khasab Airport (Оман) (147 км)
Погода в Ras Al Khaimah Int Airport (ОАЭ) (153 км)
Погода в Sharjah (ОАЭ) (155 км)
Погода в Dubai (ОАЭ) (156 км)
Погода в Bandarabbass (Иран) (169 км)
Погода в Diba (Оман) (178 км)

Пояснения к столбцам:

Ветер - указаны скорость ветра в м/с - средняя за 10 мин, порывы в срок и между сроками (в фигурных скобках) и направление, откуда дует ветер: С - северный, СВ - северо-восточный, В - восточный, ЮВ - юго-восточный, Ю - южный, ЮЗ - юго-западный, З - западный, СЗ - северо-западный.
Видимость - горизонтальная дальность видимости в метрах или километрах. При видимости от 1 до 10 км при отсутствии осадков обычно наблюдается дымка, при ухудшении видимости до 1 км и менее - туман. В сухую погоду видимость может ухудшаться дымом, пылью или мглою.
Явления - указаны атмосферные явления, наблюдавшиеся в срок или в последний час перед сроком; фигурными скобками обозначены явления, наблюдавшиеся между сроками (за 1-3 часа до срока); квадратными скобками обозначены град или гололедные отложения с указанием их диаметра в мм.
Облачность - указаны через наклонную черту общая и нижняя облачность в баллах и высота нижней границы облаков в метрах; квадратными скобками обозначены формы облаков: Ci - перистые, Cs - перисто-слоистые, Cc - перисто-кучевые, Ac - высококучевые, As - высокослоистые, Sc - слоисто-кучевые, Ns - слоисто-дождевые, Cu - кучевые, Cb - кучево-дождевые. Подробнее классификацию облаков см. в Атласе облаков (PDF).
T - Температура воздуха - температура, измеренная на высоте 2 м над землей.
Td - Температура точки росы - температура, при понижении до которой содержащийся в воздухе водяной пар достигнет насыщения.
f - Относительная влажность воздуха - влажноcть воздуха, измеренная на высоте 2 м над землей.
Te - Эффективная температура - температура, которую ощущает одетый по сезону человек в тени. Характеристика душности погоды. При расчете учитывается влияние влажности воздуха и скорости ветра на теплоощущения человека.
Tes - Эффективная температура на солнце - температура, которую ощущает человек, с поправкой на солнечный нагрев. Характеристика знойности погоды. Зависит от высоты солнца над горизонтом, облачности и скорости ветра. Ночью, в пасмурную погоду, а также при ветре 12 м/с и более поправка равна нулю.
P - Атмосферное давление - приведенное к уровню моря атмосферное давление.
Po - Атмосферное давление - измеренное на уровне метеостанции атмосферное давление.
Tmin - Минимальная температура - минимум температуры воздуха на высоте 2 м над землей.
Tmax - Максимальная температура - максимум температуры воздуха на высоте 2 м над землей.
R - Количество осадков - Количество выпавших осадков за период времени, мм. При наведении курсора мыши на число - период времени, за который выпало указанное количество осадков.
R24 - Количество осадков - Количество выпавших осадков за 24 часа, мм.
S - Снежный покров - Высота снежного покрова, см. При наведении курсора мыши на число - состояние снежного покрова и степень покрытия местности в баллах.